Location: Rumah Long Bangan
(2.8362°N, 113.7519°E)
Time: 18:14:28
(UTC+00:00)

Cosmos 1441 Rocket - Pass Details

Date: 24 October 2021
Orbit: 495 x 537 km, 81.1° (Epoch: 07 December)

Event Time Altitude Azimuth Distance (km) Brightness Sun altitude
Rises 21:10:58 0° 198° (SSW) 2,629 6.7 -14.8°
Reaches altitude 10° 21:13:12 10° 205° (SSW) 1,733 5.7 -14.3°
Maximum altitude 21:16:46 39° 275° (W) 767 3.5 -13.4°
Drops below altitude 10° 21:20:17 10° 345° (NNW) 1,705 5.6 -12.5°
Sets 21:22:28 0° 353° (N) 2,580 6.6 -12.0°
